| time (UTC) | temp F | wind direction | speed MPH | gust MPH | rain 1hr in | rain 24hr in | rain mn in | humidity % | barometer mb |
| 20260503231741 | 60 | 274 | 1.0 | 17.0 | 0.00 | 0.00 | 0.00 | 33 | 1012.1 |
| 20260503231241 | 60 | 251 | 2.0 | 17.0 | 0.00 | 0.00 | 0.00 | 33 | 1012.0 |
| 20260503230740 | 60 | 300 | 2.0 | 17.0 | 0.00 | 0.00 | 0.00 | 33 | 1012.0 |
| 20260503230240 | 60 | 205 | 1.0 | 17.0 | 0.00 | 0.00 | 0.00 | 33 | 1011.9 |
| 20260503225740 | 61 | 283 | 2.0 | 17.0 | 0.00 | 0.00 | 0.00 | 32 | 1012.0 |
| 20260503225240 | 61 | 274 | 1.0 | 17.0 | 0.00 | 0.00 | 0.00 | 32 | 1012.0 |
| 20260503224740 | 61 | 282 | 1.0 | 17.0 | 0.00 | 0.00 | 0.00 | 32 | 1011.9 |
| 20260503224240 | 61 | 253 | 1.0 | 17.0 | 0.00 | 0.00 | 0.00 | 31 | 1011.9 |
| 20260503223740 | 61 | 239 | 1.0 | 17.0 | 0.00 | 0.00 | 0.00 | 31 | 1011.8 |
| 20260503223239 | 62 | 237 | 1.0 | 17.0 | 0.00 | 0.00 | 0.00 | 30 | 1011.8 |
| 20260503222739 | 62 | 269 | 1.0 | 17.0 | 0.00 | 0.00 | 0.00 | 30 | 1011.8 |
| 20260503222239 | 62 | 289 | 2.0 | 17.0 | 0.00 | 0.00 | 0.00 | 29 | 1011.7 |
| 20260503221739 | 63 | 282 | 3.0 | 17.0 | 0.00 | 0.00 | 0.00 | 29 | 1011.7 |
| 20260503221239 | 63 | 284 | 0.0 | 17.0 | 0.00 | 0.00 | 0.00 | 30 | 1011.6 |
| 20260503220739 | 63 | 283 | 1.0 | 17.0 | 0.00 | 0.00 | 0.00 | 28 | 1011.8 |
| 20260503220239 | 63 | 283 | 5.0 | 17.0 | 0.00 | 0.00 | 0.00 | 28 | 1011.8 |
| 20260503215738 | 62 | 259 | 1.0 | 17.0 | 0.00 | 0.00 | 0.00 | 29 | 1011.8 |
| 20260503215238 | 62 | 278 | 2.0 | 17.0 | 0.00 | 0.00 | 0.00 | 29 | 1011.8 |
| 20260503214738 | 63 | 320 | 3.0 | 17.0 | 0.00 | 0.00 | 0.00 | 28 | 1011.8 |
| 20260503214238 | 63 | 285 | 2.0 | 17.0 | 0.00 | 0.00 | 0.00 | 28 | 1011.8 |
| 20260503213738 | 63 | 269 | 1.0 | 17.0 | 0.00 | 0.00 | 0.00 | 28 | 1011.8 |
| 20260503213238 | 63 | 281 | 5.0 | 17.0 | 0.00 | 0.00 | 0.00 | 29 | 1011.8 |
| 20260503212738 | 63 | 285 | 2.0 | 17.0 | 0.00 | 0.00 | 0.00 | 29 | 1011.8 |
| 20260503212237 | 63 | 291 | 5.0 | 17.0 | 0.00 | 0.00 | 0.00 | 29 | 1011.8 |
| 20260503211737 | 64 | 270 | 1.0 | 17.0 | 0.00 | 0.00 | 0.00 | 29 | 1011.9 |
| 20260503211237 | 64 | 261 | 2.0 | 17.0 | 0.00 | 0.00 | 0.00 | 29 | 1011.8 |
| 20260503210737 | 64 | 277 | 2.0 | 17.0 | 0.00 | 0.00 | 0.00 | 29 | 1011.8 |
| 20260503210237 | 63 | 330 | 3.0 | 17.0 | 0.00 | 0.00 | 0.00 | 29 | 1011.8 |
| 20260503205737 | 63 | 255 | 2.0 | 17.0 | 0.00 | 0.00 | 0.00 | 29 | 1011.6 |
| 20260503205236 | 62 | 278 | 2.0 | 17.0 | 0.00 | 0.00 | 0.00 | 29 | 1011.7 |
| 20260503204736 | 63 | 287 | 3.0 | 17.0 | 0.00 | 0.00 | 0.00 | 29 | 1011.6 |
| 20260503204236 | 63 | 282 | 6.0 | 17.0 | 0.00 | 0.00 | 0.00 | 29 | 1011.6 |
| 20260503203736 | 63 | 260 | 1.0 | 17.0 | 0.00 | 0.00 | 0.00 | 29 | 1011.7 |
| 20260503203236 | 63 | 326 | 2.0 | 17.0 | 0.00 | 0.00 | 0.00 | 29 | 1011.7 |
| 20260503202736 | 63 | 277 | 1.0 | 17.0 | 0.00 | 0.00 | 0.00 | 30 | 1011.7 |
| 20260503202235 | 63 | 270 | 2.0 | 15.0 | 0.00 | 0.00 | 0.00 | 30 | 1011.8 |
| 20260503201735 | 62 | 196 | 1.0 | 15.0 | 0.00 | 0.00 | 0.00 | 30 | 1011.8 |
| 20260503201235 | 62 | 295 | 5.0 | 15.0 | 0.00 | 0.00 | 0.00 | 29 | 1011.8 |
| 20260503200735 | 62 | 298 | 2.0 | 15.0 | 0.00 | 0.00 | 0.00 | 29 | 1011.9 |
| 20260503200235 | 62 | 311 | 3.0 | 14.0 | 0.00 | 0.00 | 0.00 | 30 | 1011.8 |
| 20260503195735 | 62 | 270 | 2.0 | 14.0 | 0.00 | 0.00 | 0.00 | 31 | 1012.1 |
| 20260503195235 | 62 | 286 | 2.0 | 14.0 | 0.00 | 0.00 | 0.00 | 31 | 1012.0 |
| 20260503194734 | 61 | 279 | 2.0 | 14.0 | 0.00 | 0.00 | 0.00 | 32 | 1012.0 |
| 20260503194234 | 60 | 289 | 2.0 | 14.0 | 0.00 | 0.00 | 0.00 | 32 | 1012.2 |
| 20260503193734 | 60 | 289 | 3.0 | 14.0 | 0.00 | 0.00 | 0.00 | 32 | 1012.2 |
| 20260503193234 | 60 | 310 | 3.0 | 14.0 | 0.00 | 0.00 | 0.00 | 32 | 1012.3 |
| 20260503192734 | 60 | 295 | 3.0 | 14.0 | 0.00 | 0.00 | 0.00 | 32 | 1012.3 |
| 20260503192234 | 59 | 301 | 3.0 | 14.0 | 0.00 | 0.00 | 0.00 | 33 | 1012.3 |
| 20260503191733 | 60 | 286 | 5.0 | 14.0 | 0.00 | 0.00 | 0.00 | 32 | 1012.4 |
| 20260503191233 | 61 | 310 | 1.0 | 14.0 | 0.00 | 0.00 | 0.00 | 32 | 1012.3 |
| 20260503190733 | 61 | 285 | 3.0 | 14.0 | 0.00 | 0.00 | 0.00 | 33 | 1012.4 |
| 20260503190233 | 60 | 296 | 2.0 | 14.0 | 0.00 | 0.00 | 0.00 | 34 | 1012.3 |
| 20260503185733 | 60 | 282 | 3.0 | 14.0 | 0.00 | 0.00 | 0.00 | 33 | 1012.4 |
| 20260503185233 | 61 | 288 | 2.0 | 14.0 | 0.00 | 0.00 | 0.00 | 34 | 1012.5 |
| 20260503184732 | 60 | 282 | 5.0 | 14.0 | 0.00 | 0.00 | 0.00 | 34 | 1012.5 |
| 20260503184232 | 59 | 317 | 1.0 | 14.0 | 0.00 | 0.00 | 0.00 | 35 | 1012.8 |
| 20260503183732 | 59 | 257 | 3.0 | 14.0 | 0.00 | 0.00 | 0.00 | 34 | 1012.7 |
| 20260503183232 | 59 | 259 | 6.0 | 14.0 | 0.00 | 0.00 | 0.00 | 34 | 1012.9 |
| 20260503182732 | 59 | 281 | 1.0 | 14.0 | 0.00 | 0.00 | 0.00 | 35 | 1012.8 |
| 20260503182232 | 59 | 271 | 5.0 | 14.0 | 0.00 | 0.00 | 0.00 | 36 | 1012.8 |
| 20260503181732 | 59 | 290 | 1.0 | 14.0 | 0.00 | 0.00 | 0.00 | 36 | 1012.9 |
| 20260503181232 | 58 | 230 | 1.0 | 14.0 | 0.00 | 0.00 | 0.00 | 37 | 1012.8 |
| 20260503180731 | 57 | 221 | 1.0 | 14.0 | 0.00 | 0.00 | 0.00 | 38 | 1012.8 |
| 20260503180231 | 57 | 284 | 5.0 | 14.0 | 0.00 | 0.00 | 0.00 | 37 | 1012.9 |
| 20260503175731 | 57 | 327 | 3.0 | 14.0 | 0.00 | 0.00 | 0.00 | 38 | 1012.9 |
| 20260503175231 | 56 | 278 | 2.0 | 14.0 | 0.00 | 0.00 | 0.00 | 38 | 1013.0 |
| 20260503174731 | 56 | 191 | 2.0 | 14.0 | 0.00 | 0.00 | 0.00 | 39 | 1013.2 |
| 20260503174230 | 56 | 323 | 2.0 | 14.0 | 0.00 | 0.00 | 0.00 | 38 | 1013.0 |
| 20260503173730 | 56 | 260 | 5.0 | 14.0 | 0.00 | 0.00 | 0.00 | 38 | 1013.0 |
| 20260503173230 | 57 | 327 | 3.0 | 14.0 | 0.00 | 0.00 | 0.00 | 39 | 1013.0 |
| 20260503172730 | 57 | 304 | 3.0 | 14.0 | 0.00 | 0.00 | 0.00 | 40 | 1013.0 |
| 20260503172230 | 57 | 315 | 5.0 | 14.0 | 0.00 | 0.00 | 0.00 | 38 | 1013.1 |
| 20260503171730 | 56 | 266 | 2.0 | 14.0 | 0.00 | 0.00 | 0.00 | 39 | 1013.1 |
| 20260503171230 | 56 | 311 | 5.0 | 14.0 | 0.00 | 0.00 | 0.00 | 39 | 1013.1 |
| 20260503170729 | 56 | 298 | 6.0 | 14.0 | 0.00 | 0.00 | 0.00 | 40 | 1013.1 |
| 20260503170229 | 55 | 265 | 1.0 | 14.0 | 0.00 | 0.00 | 0.00 | 41 | 1013.1 |
| 20260503150725 | 54 | 239 | 1.0 | 14.0 | 0.00 | 0.00 | 0.00 | 39 | 1013.6 |
| 20260503150225 | 54 | 286 | 2.0 | 14.0 | 0.00 | 0.00 | 0.00 | 39 | 1013.6 |
| 20260503140224 | 54 | 343 | 2.0 | 14.0 | 0.00 | 0.00 | 0.00 | 47 | 1013.7 |
| 20260503131222 | 51 | 338 | 1.0 | 12.0 | 0.00 | 0.00 | 0.00 | 52 | 1013.7 |
| 20260503130722 | 51 | 224 | 1.0 | 12.0 | 0.00 | 0.00 | 0.00 | 52 | 1013.7 |
| 20260503130221 | 51 | 295 | 1.0 | 12.0 | 0.00 | 0.00 | 0.00 | 53 | 1013.6 |
| 20260503120220 | 49 | 309 | 0.0 | 10.0 | 0.00 | 0.00 | 0.00 | 56 | 1013.4 |
| 20260503110718 | 46 | 276 | 0.0 | 10.0 | 0.00 | 0.00 | 0.00 | 58 | 1013.0 |
| 20260503110218 | 46 | 308 | 2.0 | 10.0 | 0.00 | 0.00 | 0.00 | 58 | 1013.0 |
| 20260503100216 | 47 | 329 | 0.0 | 10.0 | 0.00 | 0.00 | 0.00 | 57 | 1011.9 |
| 20260503090214 | 47 | 337 | 1.0 | 10.0 | 0.00 | 0.00 | 0.00 | 55 | 1011.5 |
| 20260503081212 | 48 | 1 | 1.0 | 9.0 | 0.00 | 0.00 | 0.00 | 54 | 1011.5 |
| 20260503080712 | 48 | 358 | 1.0 | 9.0 | 0.00 | 0.00 | 0.00 | 54 | 1011.4 |
| 20260503080212 | 48 | 327 | 2.0 | 9.0 | 0.00 | 0.00 | 0.00 | 54 | 1011.5 |
| 20260503072711 | 49 | 257 | 1.0 | 9.0 | 0.00 | 0.00 | 0.00 | 52 | 1011.5 |
| 20260503072211 | 49 | 5 | 2.0 | 9.0 | 0.00 | 0.00 | 0.00 | 52 | 1011.4 |
| 20260503071711 | 49 | 238 | 0.0 | 9.0 | 0.00 | 0.00 | 0.00 | 52 | 1011.5 |
| 20260503071211 | 49 | 236 | 1.0 | 9.0 | 0.00 | 0.00 | 0.00 | 51 | 1011.4 |
| 20260503070711 | 49 | 309 | 1.0 | 9.0 | 0.00 | 0.00 | 0.00 | 51 | 1011.4 |
| 20260503070210 | 50 | 354 | 1.0 | 9.0 | 0.00 | 0.00 | 0.00 | 50 | 1011.4 |
| 20260503060208 | 51 | 350 | 0.0 | 9.0 | 0.00 | 0.00 | 0.00 | 48 | 1011.7 |
| 20260503054708 | 51 | 330 | 1.0 | 9.0 | 0.00 | 0.00 | 0.00 | 46 | 1011.7 |
| 20260503054208 | 51 | 0 | 2.0 | 9.0 | 0.00 | 0.00 | 0.00 | 46 | 1011.7 |
| 20260503053708 | 51 | 319 | 1.0 | 9.0 | 0.00 | 0.00 | 0.00 | 46 | 1011.7 |
| 20260503053207 | 52 | 299 | 1.0 | 9.0 | 0.00 | 0.00 | 0.00 | 46 | 1011.8 |
| 20260503052707 | 52 | 319 | 3.0 | 9.0 | 0.00 | 0.00 | 0.00 | 46 | 1011.8 |
| 20260503052207 | 52 | 293 | 0.0 | 9.0 | 0.00 | 0.00 | 0.00 | 46 | 1011.8 |
| 20260503051707 | 52 | 346 | 2.0 | 9.0 | 0.00 | 0.00 | 0.00 | 46 | 1011.9 |
| 20260503051207 | 52 | 313 | 3.0 | 9.0 | 0.00 | 0.00 | 0.00 | 45 | 1012.0 |
| 20260503050707 | 52 | 243 | 1.0 | 8.0 | 0.00 | 0.00 | 0.00 | 46 | 1012.1 |
| 20260503050206 | 52 | 351 | 1.0 | 8.0 | 0.00 | 0.00 | 0.00 | 45 | 1012.1 |
| 20260503045706 | 52 | 348 | 2.0 | 8.0 | 0.00 | 0.00 | 0.00 | 46 | 1012.2 |
| 20260503045206 | 52 | 343 | 2.0 | 8.0 | 0.00 | 0.00 | 0.00 | 46 | 1012.2 |
| 20260503044706 | 52 | 331 | 1.0 | 8.0 | 0.00 | 0.00 | 0.00 | 46 | 1012.3 |
| 20260503044206 | 52 | 350 | 2.0 | 8.0 | 0.00 | 0.00 | 0.00 | 45 | 1012.2 |
| 20260503043706 | 53 | 297 | 1.0 | 7.0 | 0.00 | 0.00 | 0.00 | 45 | 1012.2 |
| 20260503043205 | 53 | 335 | 0.0 | 7.0 | 0.00 | 0.00 | 0.00 | 45 | 1012.1 |
| 20260503042705 | 53 | 355 | 2.0 | 7.0 | 0.00 | 0.00 | 0.00 | 45 | 1012.2 |
| 20260503042205 | 53 | 357 | 2.0 | 7.0 | 0.00 | 0.00 | 0.00 | 45 | 1012.2 |
| 20260503041705 | 53 | 34 | 1.0 | 7.0 | 0.00 | 0.00 | 0.00 | 45 | 1012.2 |
| 20260503041205 | 53 | 13 | 1.0 | 7.0 | 0.00 | 0.00 | 0.00 | 44 | 1012.2 |
| 20260503040705 | 53 | 317 | 0.0 | 7.0 | 0.00 | 0.00 | 0.00 | 44 | 1012.3 |
| 20260503040204 | 53 | 138 | 1.0 | 3.0 | 0.00 | 0.00 | 0.00 | 44 | 1012.3 |
| 20260503035704 | 53 | 322 | 1.0 | 9.0 | 0.00 | 0.00 | 0.00 | 44 | 1012.3 |
| 20260503035204 | 53 | 306 | 2.0 | 9.0 | 0.00 | 0.00 | 0.00 | 44 | 1012.3 |
| 20260503034704 | 54 | 323 | 2.0 | 9.0 | 0.00 | 0.00 | 0.00 | 45 | 1012.3 |
| 20260503034204 | 54 | 294 | 0.0 | 9.0 | 0.00 | 0.00 | 0.00 | 45 | 1012.3 |
| 20260503033704 | 54 | 316 | 1.0 | 9.0 | 0.00 | 0.00 | 0.00 | 44 | 1012.3 |
| 20260503033203 | 54 | 309 | 3.0 | 9.0 | 0.00 | 0.00 | 0.00 | 44 | 1012.2 |
| 20260503032703 | 54 | 321 | 1.0 | 9.0 | 0.00 | 0.00 | 0.00 | 44 | 1012.2 |
| 20260503032203 | 54 | 300 | 0.0 | 9.0 | 0.00 | 0.00 | 0.00 | 44 | 1012.3 |
| 20260503031703 | 54 | 352 | 1.0 | 9.0 | 0.00 | 0.00 | 0.00 | 43 | 1012.2 |
| 20260503031203 | 54 | 347 | 0.0 | 9.0 | 0.00 | 0.00 | 0.00 | 43 | 1012.2 |
| 20260503030703 | 54 | 8 | 1.0 | 9.0 | 0.00 | 0.00 | 0.00 | 43 | 1012.3 |
| 20260503030202 | 54 | 277 | 1.0 | 9.0 | 0.00 | 0.00 | 0.00 | 42 | 1012.3 |
| 20260503025702 | 55 | 319 | 0.0 | 9.0 | 0.00 | 0.00 | 0.00 | 42 | 1012.3 |
| 20260503025202 | 55 | 326 | 0.0 | 9.0 | 0.00 | 0.00 | 0.00 | 42 | 1012.3 |
| 20260503024702 | 55 | 9 | 0.0 | 9.0 | 0.00 | 0.00 | 0.00 | 43 | 1012.3 |
| 20260503024202 | 55 | 319 | 1.0 | 9.0 | 0.00 | 0.00 | 0.00 | 42 | 1012.2 |
| 20260503023701 | 55 | 240 | 0.0 | 9.0 | 0.00 | 0.00 | 0.00 | 42 | 1012.3 |
| 20260503023201 | 55 | 334 | 1.0 | 9.0 | 0.00 | 0.00 | 0.00 | 42 | 1012.1 |
| 20260503022701 | 55 | 286 | 1.0 | 9.0 | 0.00 | 0.00 | 0.00 | 42 | 1012.1 |
| 20260503022201 | 55 | 336 | 2.0 | 9.0 | 0.00 | 0.00 | 0.00 | 42 | 1012.2 |
| 20260503021701 | 55 | 326 | 0.0 | 9.0 | 0.00 | 0.00 | 0.00 | 42 | 1012.2 |
| 20260503021201 | 55 | 310 | 1.0 | 9.0 | 0.00 | 0.00 | 0.00 | 42 | 1012.2 |
| 20260503020700 | 55 | 338 | 0.0 | 9.0 | 0.00 | 0.00 | 0.00 | 42 | 1012.2 |
| 20260503020200 | 55 | 301 | 1.0 | 9.0 | 0.00 | 0.00 | 0.00 | 42 | 1012.2 |
| 20260503015700 | 55 | 301 | 0.0 | 9.0 | 0.00 | 0.00 | 0.00 | 43 | 1012.3 |
| 20260503015200 | 55 | 231 | 0.0 | 9.0 | 0.00 | 0.00 | 0.00 | 43 | 1012.2 |
| 20260503014700 | 55 | 339 | 1.0 | 9.0 | 0.00 | 0.00 | 0.00 | 43 | 1012.4 |
| 20260503014159 | 55 | 12 | 0.0 | 9.0 | 0.00 | 0.00 | 0.00 | 42 | 1012.3 |
| 20260503013659 | 56 | 303 | 0.0 | 9.0 | 0.00 | 0.00 | 0.00 | 42 | 1012.4 |
| 20260503013159 | 56 | 300 | 1.0 | 9.0 | 0.00 | 0.00 | 0.00 | 42 | 1012.3 |
| 20260503012659 | 56 | 7 | 1.0 | 9.0 | 0.00 | 0.00 | 0.00 | 41 | 1012.3 |
| 20260503012159 | 56 | 74 | 1.0 | 9.0 | 0.00 | 0.00 | 0.00 | 41 | 1012.3 |
| 20260503011659 | 56 | 349 | 0.0 | 9.0 | 0.00 | 0.00 | 0.00 | 42 | 1012.3 |
| 20260503011158 | 56 | 357 | 1.0 | 9.0 | 0.00 | 0.00 | 0.00 | 42 | 1012.1 |
| 20260503010658 | 56 | 323 | 0.0 | 9.0 | 0.00 | 0.00 | 0.00 | 42 | 1012.2 |
| 20260503010158 | 56 | 253 | 0.0 | 9.0 | 0.00 | 0.00 | 0.00 | 41 | 1012.1 |
| 20260503005658 | 56 | 304 | 1.0 | 9.0 | 0.00 | 0.00 | 0.00 | 41 | 1012.0 |
| 20260503005158 | 56 | 358 | 1.0 | 9.0 | 0.00 | 0.00 | 0.00 | 42 | 1012.1 |
| 20260503004658 | 56 | 335 | 0.0 | 9.0 | 0.00 | 0.00 | 0.00 | 42 | 1012.0 |
| 20260503004158 | 57 | 330 | 2.0 | 9.0 | 0.00 | 0.00 | 0.00 | 41 | 1011.9 |
| 20260503003657 | 57 | 337 | 2.0 | 9.0 | 0.00 | 0.00 | 0.00 | 42 | 1011.8 |
| 20260503003157 | 57 | 277 | 0.0 | 9.0 | 0.00 | 0.00 | 0.00 | 42 | 1011.8 |
| 20260503002657 | 57 | 277 | 0.0 | 9.0 | 0.00 | 0.00 | 0.00 | 43 | 1011.8 |
| 20260503002157 | 57 | 277 | 0.0 | 9.0 | 0.00 | 0.00 | 0.00 | 42 | 1011.7 |
| 20260503001657 | 57 | 276 | 0.0 | 9.0 | 0.00 | 0.00 | 0.00 | 42 | 1011.7 |
| 20260503001157 | 58 | 270 | 0.0 | 9.0 | 0.00 | 0.00 | 0.00 | 41 | 1011.6 |
| 20260503000656 | 58 | 268 | 0.0 | 9.0 | 0.00 | 0.00 | 0.00 | 41 | 1011.6 |
| 20260503000156 | 58 | 269 | 0.0 | 9.0 | 0.00 | 0.00 | 0.00 | 41 | 1011.5 |
| 20260502235656 | 58 | 347 | 0.0 | 9.0 | 0.00 | 0.00 | 0.00 | 41 | 1011.5 |
| 20260502235156 | 58 | 347 | 0.0 | 9.0 | 0.00 | 0.00 | 0.00 | 41 | 1011.6 |
| 20260502234656 | 59 | 347 | 0.0 | 9.0 | 0.00 | 0.00 | 0.00 | 40 | 1011.6 |
| 20260502234156 | 59 | 347 | 0.0 | 9.0 | 0.00 | 0.00 | 0.00 | 40 | 1011.6 |
| 20260502233655 | 59 | 347 | 1.0 | 9.0 | 0.00 | 0.00 | 0.00 | 40 | 1011.6 |
| 20260502233155 | 59 | 313 | 0.0 | 9.0 | 0.00 | 0.00 | 0.00 | 40 | 1011.6 |
| 20260502232655 | 59 | 329 | 1.0 | 9.0 | 0.00 | 0.00 | 0.00 | 40 | 1011.5 |
| 20260502232155 | 60 | 309 | 0.0 | 9.0 | 0.00 | 0.00 | 0.00 | 40 | 1011.4 |